Tracking 35237 objects as of 6-Sep-2026
HD Live streaming from Space Station
objects crossing your sky now

STARLINK-35772

Track STARLINK-35772 now!
10-day predictions
STARLINK-35772 is classified as:


NORAD ID: 66976
Int'l Code: 2025-288T
Launch date: December 8, 2025
Source: United States (US)
Launch site: AIR FORCE EASTERN TEST RANGE (AFETR)
Your satellite tracking list
Your tracking list is empty




NASA's NSSDC Master Catalog

Two Line Element Set (TLE):
1 66976U 25288T   26249.58737132  .00008793  00000-0  32863-3 0  9990
2 66976  42.9998  81.8573 0000791 243.7104 116.3667 15.27584779 42952
Source of the keplerian elements: AFSPC